When you browse on this site, cookies collect data to enhance your experience and personalize the content and advertising you see.
Visit our Privacy Policy to learn more. By continuing to use the site, you agree to this use of cookies and data.
  • In Portugal
  • List of Countries
  • For 7 days
  • Water Temperature
  • Weather Map
  • Weather Widgets
  • user-avatar
    Login

    Hourly Weather Batina

    Today, 19 February, Wednesday

    Time Temperature Precipitation Wind Pressure Humidity
    00:00 +9°C° 0 mm 1 mps 677 mmHg 88%
    01:00 +8°C° 0 mm 1 mps 676 mmHg 89%
    02:00 +8°C° 0 mm 1 mps 676 mmHg 90%
    03:00 +7°C° 0 mm 1 mps 675 mmHg 91%
    04:00 +7°C° 0 mm 1 mps 675 mmHg 91%
    05:00 +7°C° 0 mm 1 mps 676 mmHg 91%
    06:00 +7°C° 0 mm 1 mps 676 mmHg 91%
    07:00 +8°C° 0 mm 1 mps 676 mmHg 88%
    08:00 +8°C° 0 mm 2 mps 677 mmHg 86%
    09:00 +8°C° 0 mm 2 mps 677 mmHg 83%
    10:00 +9°C° 0 mm 2 mps 677 mmHg 78%
    11:00 +10°C° 0 mm 2 mps 677 mmHg 73%
    12:00 +12°C° 0 mm 2 mps 677 mmHg 68%
    13:00 +12°C° 0 mm 2 mps 677 mmHg 66%
    14:00 +11°C° 0 mm 3 mps 677 mmHg 63%
    15:00 +11°C° 0 mm 3 mps 676 mmHg 60%
    16:00 +10°C° 0 mm 3 mps 676 mmHg 65%
    17:00 +9°C° 0 mm 3 mps 676 mmHg 70%
    18:00 +8°C° 0 mm 3 mps 675 mmHg 75%
    19:00 +7°C° 0 mm 2 mps 676 mmHg 78%
    20:00 +7°C° 0 mm 2 mps 676 mmHg 82%
    21:00 +6°C° 0 mm 2 mps 676 mmHg 85%
    22:00 +6°C° 0 mm 2 mps 675 mmHg 86%
    23:00 +6°C° 0 mm 1 mps 675 mmHg 87%

    Tomorrow, 20 February, Thursday

    Time Temperature Precipitation Wind Pressure Humidity
    00:00 +6°C° 0 mm 1 mps 675 mmHg 89%
    01:00 +6°C° 0 mm 1 mps 675 mmHg 88%
    02:00 +5°C° 0 mm 1 mps 674 mmHg 87%
    03:00 +4°C° 0 mm 0 mps 674 mmHg 85%
    04:00 +4°C° 0 mm 0 mps 674 mmHg 86%
    05:00 +4°C° 0 mm 0 mps 673 mmHg 87%
    06:00 +3°C° 0 mm 0 mps 673 mmHg 87%
    07:00 +5°C° 0 mm 0 mps 674 mmHg 78%
    08:00 +9°C° 0 mm 1 mps 675 mmHg 68%
    09:00 +11°C° 0 mm 1 mps 676 mmHg 58%
    10:00 +12°C° 0 mm 1 mps 676 mmHg 54%
    11:00 +13°C° 0 mm 1 mps 675 mmHg 49%
    12:00 +14°C° 0 mm 2 mps 675 mmHg 44%
    13:00 +15°C° 0 mm 2 mps 675 mmHg 43%
    14:00 +15°C° 0 mm 2 mps 675 mmHg 43%
    15:00 +15°C° 0 mm 2 mps 675 mmHg 43%
    16:00 +14°C° 0 mm 2 mps 674 mmHg 48%
    17:00 +12°C° 0 mm 2 mps 674 mmHg 54%
    18:00 +11°C° 0 mm 1 mps 674 mmHg 60%
    19:00 +10°C° 0 mm 1 mps 674 mmHg 63%
    20:00 +10°C° 0 mm 1 mps 674 mmHg 66%
    21:00 +9°C° 0 mm 1 mps 674 mmHg 68%
    22:00 +9°C° 0 mm 1 mps 674 mmHg 70%
    23:00 +8°C° 0 mm 1 mps 674 mmHg 71%

    Day after tomorrow, 21 February, Friday

    Time Temperature Precipitation Wind Pressure Humidity
    00:00 +8°C° 0 mm 1 mps 674 mmHg 73%
    01:00 +7°C° 0 mm 0 mps 673 mmHg 73%
    02:00 +6°C° 0 mm 0 mps 673 mmHg 74%
    03:00 +6°C° 0 mm 0 mps 673 mmHg 75%
    04:00 +6°C° 0 mm 0 mps 673 mmHg 76%
    05:00 +5°C° 0 mm 0 mps 673 mmHg 77%
    06:00 +6°C° 0 mm 1 mps 673 mmHg 78%
    13:00 +15°C° 0 mm 2 mps 676 mmHg 38%
    14:00 +15°C° 0 mm 2 mps 676 mmHg 36%
    15:00 +16°C° 0 mm 2 mps 676 mmHg 36%
    16:00 +14°C° 0 mm 2 mps 676 mmHg 42%
    17:00 +13°C° 0 mm 2 mps 676 mmHg 49%
    18:00 +12°C° 0 mm 1 mps 676 mmHg 55%
    19:00 +11°C° 0 mm 1 mps 676 mmHg 60%
    20:00 +10°C° 0 mm 1 mps 676 mmHg 66%
    21:00 +9°C° 0 mm 1 mps 676 mmHg 71%
    22:00 +9°C° 0 mm 1 mps 676 mmHg 73%
    23:00 +8°C° 0 mm 1 mps 676 mmHg 74%

    22 February, Saturday

    Time Temperature Precipitation Wind Pressure Humidity
    00:00 +8°C° 0 mm 1 mps 676 mmHg 76%
    01:00 +7°C° 0 mm 1 mps 675 mmHg 77%
    02:00 +7°C° 0 mm 1 mps 675 mmHg 77%
    03:00 +7°C° 0 mm 1 mps 675 mmHg 78%
    04:00 +6°C° 0 mm 1 mps 675 mmHg 78%
    05:00 +6°C° 0 mm 1 mps 675 mmHg 79%
    06:00 +6°C° 0 mm 1 mps 676 mmHg 80%
    07:00 +8°C° 0 mm 1 mps 676 mmHg 71%
    08:00 +9°C° 0 mm 1 mps 677 mmHg 61%
    09:00 +10°C° 0 mm 0 mps 678 mmHg 52%
    10:00 +13°C° 0 mm 1 mps 678 mmHg 44%
    11:00 +14°C° 0 mm 1 mps 679 mmHg 37%
    12:00 +15°C° 0 mm 2 mps 679 mmHg 29%
    13:00 +16°C° 0 mm 2 mps 679 mmHg 28%
    14:00 +16°C° 0 mm 3 mps 679 mmHg 28%
    15:00 +16°C° 0 mm 3 mps 678 mmHg 27%
    16:00 +13°C° 0 mm 3 mps 678 mmHg 34%
    17:00 +13°C° 0 mm 2 mps 678 mmHg 40%
    18:00 +10°C° 0 mm 2 mps 678 mmHg 46%
    19:00 +10°C° 0 mm 1 mps 678 mmHg 52%
    20:00 +9°C° 0 mm 1 mps 678 mmHg 57%
    21:00 +8°C° 0 mm 1 mps 678 mmHg 63%
    22:00 +8°C° 0 mm 1 mps 678 mmHg 64%
    23:00 +6°C° 0 mm 0 mps 678 mmHg 65%

    23 February, Sunday

    Time Temperature Precipitation Wind Pressure Humidity
    00:00 +6°C° 0 mm 0 mps 678 mmHg 67%
    01:00 +6°C° 0 mm 0 mps 678 mmHg 67%
    02:00 +6°C° 0 mm 1 mps 677 mmHg 67%
    03:00 +6°C° 0 mm 1 mps 677 mmHg 67%
    04:00 +6°C° 0 mm 1 mps 677 mmHg 70%
    05:00 +6°C° 0 mm 1 mps 677 mmHg 73%
    06:00 +6°C° 0 mm 1 mps 677 mmHg 76%
    07:00 +8°C° 0 mm 1 mps 678 mmHg 68%
    08:00 +9°C° 0 mm 2 mps 679 mmHg 60%
    09:00 +12°C° 0 mm 2 mps 680 mmHg 52%
    10:00 +13°C° 0 mm 2 mps 680 mmHg 48%
    11:00 +13°C° 0 mm 3 mps 680 mmHg 44%
    12:00 +14°C° 0 mm 3 mps 680 mmHg 40%
    13:00 +14°C° 0 mm 3 mps 680 mmHg 41%
    14:00 +14°C° 0 mm 3 mps 680 mmHg 41%
    15:00 +14°C° 0 mm 3 mps 679 mmHg 41%
    16:00 +13°C° 0 mm 3 mps 679 mmHg 47%
    17:00 +12°C° 0 mm 3 mps 679 mmHg 53%
    18:00 +10°C° 0 mm 2 mps 678 mmHg 59%
    19:00 +10°C° 0 mm 2 mps 678 mmHg 62%
    20:00 +9°C° 0 mm 2 mps 678 mmHg 65%
    21:00 +9°C° 0 mm 1 mps 679 mmHg 69%
    22:00 +9°C° 0 mm 1 mps 678 mmHg 69%
    23:00 +9°C° 0 mm 1 mps 678 mmHg 70%

    24 February, Monday

    Time Temperature Precipitation Wind Pressure Humidity
    00:00 +8°C° 0 mm 1 mps 678 mmHg 70%
    01:00 +8°C° 0 mm 1 mps 678 mmHg 70%
    02:00 +8°C° 0 mm 1 mps 677 mmHg 71%
    03:00 +7°C° 0 mm 1 mps 677 mmHg 71%
    04:00 +7°C° 0 mm 1 mps 677 mmHg 70%
    05:00 +7°C° 0 mm 1 mps 677 mmHg 69%
    06:00 +6°C° 0 mm 1 mps 676 mmHg 68%
    07:00 +9°C° 0 mm 1 mps 677 mmHg 58%
    08:00 +11°C° 0 mm 1 mps 678 mmHg 49%
    09:00 +14°C° 0 mm 1 mps 679 mmHg 39%
    10:00 +15°C° 0 mm 1 mps 679 mmHg 35%
    11:00 +16°C° 0 mm 2 mps 679 mmHg 32%
    12:00 +17°C° 0 mm 2 mps 679 mmHg 29%
    13:00 +17°C° 0 mm 2 mps 678 mmHg 28%
    14:00 +18°C° 0 mm 2 mps 678 mmHg 28%
    15:00 +18°C° 0 mm 2 mps 677 mmHg 28%
    16:00 +16°C° 0 mm 2 mps 677 mmHg 35%
    17:00 +14°C° 0 mm 2 mps 677 mmHg 41%
    18:00 +13°C° 0 mm 1 mps 676 mmHg 48%
    19:00 +12°C° 0 mm 1 mps 676 mmHg 51%
    20:00 +11°C° 0 mm 1 mps 676 mmHg 54%
    21:00 +9°C° 0 mm 0 mps 676 mmHg 58%
    22:00 +9°C° 0 mm 0 mps 676 mmHg 57%
    23:00 +9°C° 0 mm 0 mps 675 mmHg 57%
    Show more